Flag for France Weather past 2 weeks in Biarritz, France

Now
37 °F

Clear.


Feels Like: 31 °F
Forecast: 39 / 60 °F
Wind: 9 mph from East

Location: Biarritz Airport

Current Time: Mar 6, 2015 at 4:04:39 AM

Latest Report: Mar 6, 2015 at 3:30 AM


Visibility: N/A

Pressure: 30.57 "Hg

Humidity: 81%

Dew point: 32 °F

Location of BiarritzLocation

Historic Weather in Biarritz — Graph

°F

Biarritz temperature yesterday

Maximum temperature yesterday: 52 °F (at 2:00 PM)
Minimum temperature yesterday: 36 °F (at 8:00 AM)
Average temperature yesterday: 44 °F

Past Weeks' High & Low Weather Summary

 TemperatureHumidityPressure
High63 °F (Mar 1, 1:00 PM)100% (Feb 19, 7:00 AM)30.72 "Hg (Feb 19, 7:00 AM)
Low34 °F (Feb 19, 6:00 AM)36% (Feb 20, 11:00 AM)29.74 "Hg (Feb 21, 1:00 AM)
Average49 °F83%30.21 "Hg
* Reported Feb 19 3:00 AM — Mar 6 3:00 AM, Biarritz, Weather by CustomWeather, © 2015

Note: Actual official high and low records may vary slightly from our data, if they occured in-between our weather recording intervals... More about our weather records

Advertising

Biarritz weather history for previous 24 hours

 ConditionsComfort  
Time TempWeatherWind HumidityBarometerVisibility
3:00 AM
Fri, Mar 6
39 °FClear.8 mph81%30.60 "HgN/A
2:30 AM39 °FClear.7 mph87%30.60 "HgN/A
2:00 AM41 °FClear.6 mph81%30.60 "HgN/A
1:30 AM41 °FClear.6 mph76%30.63 "HgN/A
1:00 AM37 °FClear.6 mph93%30.63 "HgN/A
12:30 AM37 °FClear.5 mph93%30.63 "HgN/A
12:00 AM39 °FClear.5 mph87%30.63 "HgN/A
11:30 PM
Thu, Mar 5
39 °FClear.5 mph87%30.63 "HgN/A
11:00 PM39 °FClear.5 mph87%30.63 "HgN/A
10:30 PM41 °FClear.5 mph81%30.63 "HgN/A
10:00 PM43 °FClear.3 mph76%30.63 "HgN/A
9:30 PM45 °FClear.2 mph76%30.63 "HgN/A
9:00 PM45 °FClear.3 mph76%30.63 "HgN/A
8:30 PM46 °FClear.5 mph71%30.63 "HgN/A
8:00 PM46 °FClear.5 mph71%30.63 "HgN/A
7:30 PM48 °FClear.6 mph66%30.63 "HgN/A
7:00 PM48 °FClear.8 mph66%30.63 "HgN/A
6:30 PM48 °FClear.8 mph66%30.63 "HgN/A
6:00 PM48 °FClear.12 mph66%30.63 "HgN/A
5:30 PM48 °FClear.14 mph66%30.63 "HgN/A
5:00 PM50 °FPassing clouds.13 mph62%30.63 "HgN/A
4:30 PM50 °FClear.10 mph58%30.63 "HgN/A
4:00 PM52 °FPassing clouds.10 mph44%30.63 "HgN/A
3:30 PM52 °FClear.9 mph44%30.63 "HgN/A
3:00 PM52 °FPassing clouds.10 mph50%30.63 "HgN/A
2:30 PM52 °FPassing clouds.10 mph47%30.66 "HgN/A
2:00 PM52 °FClear.12 mph50%30.66 "HgN/A
1:30 PM50 °FClear.15 mph50%30.69 "HgN/A
1:00 PM50 °FClear.12 mph54%30.69 "HgN/A
12:30 PM50 °FClear.12 mph54%30.72 "HgN/A
12:00 PM48 °FClear.10 mph62%30.72 "HgN/A
11:30 AM46 °FCool.8 mph66%30.72 "HgN/A
11:00 AM45 °FClear.9 mph76%30.72 "HgN/A
10:30 AM45 °FClear.7 mph71%30.72 "HgN/A
10:00 AM43 °FClear.7 mph81%30.72 "HgN/A
9:30 AM41 °FClear.5 mph87%30.72 "HgN/A
9:00 AM39 °FClear.5 mph93%30.72 "HgN/A
8:30 AM37 °FClear.5 mph93%30.72 "HgN/A
8:00 AM36 °FClear.3 mph93%30.72 "HgN/A
7:30 AM37 °FClear.3 mph93%30.72 "HgN/A
7:00 AM37 °FClear.3 mph93%30.72 "HgN/A
6:30 AM37 °FClear.2 mph93%30.69 "HgN/A
6:00 AM37 °FClear.2 mph87%30.69 "HgN/A
5:30 AM37 °FPassing clouds.5 mph93%30.69 "HgN/A
4:30 AM39 °FPassing clouds.3 mph87%30.69 "HgN/A
4:00 AM37 °FPassing clouds.3 mph87%30.69 "HgN/A
Weather by CustomWeather, © 2015

See weather overviewHow to use our weather pages